EST,Max TemperatureF,Mean TemperatureF,Min TemperatureF,Max Dew PointF,MeanDew PointF,Min DewpointF,Max Humidity, Mean Humidity, Min Humidity, Max Sea Level PressureIn, Mean Sea Level PressureIn, Min Sea Level PressureIn, Max VisibilityMiles, Mean VisibilityMiles, Min VisibilityMiles, Max Wind SpeedMPH, Mean Wind SpeedMPH, Max Gust SpeedMPH,PrecipitationIn, CloudCover, Events, WindDirDegrees
2011-11-1,82,78,73,70,67,61,78,67,62,30.06,30.04,30.02,6,6,6,16,11,,0.00,2,Rain,41
2011-11-2,80,78,73,66,63,57,65,59,50,30.14,30.11,30.08,6,6,6,16,11,,0.00,2,,66
2011-11-3,80,76,71,66,63,59,73,61,51,30.10,30.05,29.99,6,6,6,12,6,,0.00,1,,72
2011-11-4,80,76,71,70,64,61,78,66,57,29.94,29.88,29.81,6,6,6,13,4,,0.00,2,,298
2011-11-5,78,74,69,66,62,57,78,63,54,29.96,29.93,29.89,8,6,6,18,12,,0.00,2,,18
2011-11-6,80,74,69,68,64,61,78,66,54,30.10,30.07,30.05,6,6,6,18,10,,0.00,4,,54
2011-11-7,80,78,73,66,63,59,65,60,54,30.12,30.08,30.04,6,6,6,14,8,,0.00,2,,41
2011-11-8,82,78,73,66,64,63,69,61,54,30.04,30.01,29.98,6,6,6,16,7,,0.00,1,,46
2011-11-9,77,74,71,68,67,64,88,78,73,29.98,29.92,29.88,6,6,2,10,7,,0.00,4,Rain,7
2011-11-10,80,76,73,68,66,63,83,72,65,29.92,29.89,29.86,6,6,6,15,9,,0.00,5,,345
2011-11-11,77,74,71,63,60,55,69,62,57,30.11,30.06,30.04,6,6,6,15,11,,0.00,5,,19
2011-11-12,78,73,68,59,56,52,60,54,47,30.24,30.21,30.18,6,6,6,12,7,,0.00,2,,68
2011-11-13,80,74,68,64,60,55,64,57,51,30.22,30.18,30.13,6,6,6,15,7,,0.00,1,,108
2011-11-14,84,78,73,72,68,64,83,70,61,30.16,30.12,30.06,6,6,6,14,6,,0.00,3,,120
2011-11-15,82,80,77,75,71,64,79,73,61,30.11,30.06,30.02,6,6,6,15,9,,0.00,4,,126
2011-11-16,84,80,77,72,71,66,83,72,66,30.08,30.05,30.01,6,6,6,13,7,,0.00,2,,135
2011-11-17,84,81,78,75,73,72,83,75,66,30.10,30.05,29.97,6,6,6,12,7,,0.00,5,,182
2011-11-18,77,75,73,72,70,68,88,80,74,30.16,30.13,30.11,6,6,6,23,16,,0.00,6,,53
2011-11-19,86,80,73,70,67,61,74,65,57,30.23,30.19,30.16,6,6,6,15,8,,0.00,2,,81
2011-11-20,82,78,73,72,68,63,83,72,62,30.24,30.19,30.16,6,6,6,14,9,,0.00,4,,80
2011-11-21,80,78,75,72,68,63,83,69,61,30.24,30.19,30.14,6,6,6,13,8,,0.00,3,,102
2011-11-22,80,73,66,66,65,61,94,68,54,30.20,30.16,30.12,10,7,6,12,5,,0.00,2,,94
2011-11-23,80,73,66,68,65,61,88,66,54,30.14,30.08,30.03,6,6,6,9,3,,0.00,4,,211
2011-11-24,78,74,69,68,63,55,83,65,54,30.19,30.12,30.08,6,6,6,23,14,,0.00,3,Rain,37
2011-11-25,77,73,69,59,56,52,64,54,47,30.22,30.18,30.15,6,6,6,17,9,,0.00,5,,66
2011-11-26,78,74,69,61,59,57,64,58,54,30.23,30.18,30.14,6,6,6,18,6,,0.00,2,,74
2011-11-27,78,73,68,64,60,55,64,59,53,30.13,30.09,30.03,6,6,6,14,8,,0.00,2,,107
2011-11-28,80,76,71,72,68,63,83,74,69,30.00,29.97,29.92,6,6,6,21,11,,0.00,5,Rain,127
2011-11-29,75,72,69,68,62,57,94,71,57,30.01,29.97,29.94,6,6,6,20,12,,0.00,5,,335
2011-11-30,75,70,66,59,57,55,68,60,53,30.05,30.00,29.96,6,6,6,13,9,,0.00,2,,337